TimeEDT,TemperatureF,Dew PointF,Humidity,Sea Level PressureIn,VisibilityMPH,Wind Direction,Wind SpeedMPH,Gust SpeedMPH,PrecipitationIn,Events,Conditions,WindDirDegrees,DateUTC
12:53 AM,46.0,44.1,93,30.09,10.0,Calm,Calm,-,N/A,,Clear,0,2013-10-08 04:53:00
1:53 AM,44.1,42.1,93,30.11,10.0,Calm,Calm,-,N/A,,Clear,0,2013-10-08 05:53:00
2:53 AM,44.1,41.0,89,30.12,10.0,Calm,Calm,-,N/A,,Clear,0,2013-10-08 06:53:00
3:53 AM,45.0,41.0,86,30.13,10.0,South,4.6,-,N/A,,Clear,180,2013-10-08 07:53:00
4:53 AM,45.0,41.0,86,30.14,10.0,South,3.5,-,N/A,,Clear,180,2013-10-08 08:53:00
5:53 AM,45.0,41.0,86,30.15,10.0,South,4.6,-,N/A,,Clear,170,2013-10-08 09:53:00
6:53 AM,44.1,39.9,85,30.17,10.0,South,4.6,-,N/A,,Clear,170,2013-10-08 10:53:00
7:53 AM,45.0,39.9,82,30.19,10.0,South,3.5,-,N/A,,Partly Cloudy,170,2013-10-08 11:53:00
8:53 AM,46.9,41.0,80,30.19,10.0,South,5.8,-,N/A,,Clear,170,2013-10-08 12:53:00
9:53 AM,51.1,43.0,74,30.21,10.0,South,5.8,-,N/A,,Partly Cloudy,170,2013-10-08 13:53:00
10:53 AM,57.0,46.9,69,30.20,10.0,Variable,6.9,-,N/A,,Partly Cloudy,0,2013-10-08 14:53:00
11:53 AM,62.1,46.0,56,30.19,10.0,Variable,6.9,-,N/A,,Partly Cloudy,0,2013-10-08 15:53:00
12:53 PM,64.9,45.0,48,30.18,10.0,South,9.2,-,N/A,,Partly Cloudy,170,2013-10-08 16:53:00
1:53 PM,66.9,43.0,42,30.16,10.0,Variable,6.9,-,N/A,,Partly Cloudy,0,2013-10-08 17:53:00
2:53 PM,69.1,43.0,39,30.15,10.0,Variable,4.6,-,N/A,,Partly Cloudy,0,2013-10-08 18:53:00
3:53 PM,70.0,44.1,39,30.14,10.0,Variable,4.6,-,N/A,,Partly Cloudy,0,2013-10-08 19:53:00
4:53 PM,70.0,43.0,38,30.14,10.0,Variable,4.6,-,N/A,,Partly Cloudy,0,2013-10-08 20:53:00
5:53 PM,69.1,45.0,42,30.14,10.0,SSW,5.8,-,N/A,,Scattered Clouds,200,2013-10-08 21:53:00
6:53 PM,64.9,46.9,52,30.14,10.0,Calm,Calm,-,N/A,,Scattered Clouds,0,2013-10-08 22:53:00
7:53 PM,60.1,46.9,62,30.15,10.0,Calm,Calm,-,N/A,,Scattered Clouds,0,2013-10-08 23:53:00
8:53 PM,57.0,48.0,72,30.16,10.0,Calm,Calm,-,N/A,,Partly Cloudy,0,2013-10-09 00:53:00
9:53 PM,57.9,46.9,67,30.17,10.0,Calm,Calm,-,N/A,,Partly Cloudy,0,2013-10-09 01:53:00
10:53 PM,57.0,46.9,69,30.16,10.0,Calm,Calm,-,N/A,,Clear,0,2013-10-09 02:53:00
11:53 PM,57.9,46.9,67,30.16,10.0,Calm,Calm,-,N/A,,Clear,0,2013-10-09 03:53:00